| time (UTC) | temp F | wind direction | speed knots | gust knots | rain 1hr in | rain 24hr in | rain mn in | humidity % | barometer mb |
| 20260903131032 | 48 | 105 | 0.0 | 2.6 | 0.00 | 0.00 | 0.00 | 95 | 1011.4 |
| 20260903130526 | 48 | 23 | 0.0 | 0.9 | 0.00 | 0.00 | 0.00 | 96 | 1011.5 |
| 20260903130021 | 48 | 41 | 1.7 | 3.5 | 0.00 | 0.00 | 0.00 | 96 | 1011.5 |
| 20260903125519 | 48 | 81 | 1.7 | 3.5 | 0.00 | 0.00 | 0.00 | 96 | 1011.1 |
| 20260903125015 | 48 | 90 | 0.9 | 1.7 | 0.00 | 0.00 | 0.00 | 96 | 1011.3 |
| 20260903124509 | 48 | 90 | 0.0 | 1.7 | 0.00 | 0.00 | 0.00 | 96 | 1011.4 |
| 20260903124008 | 48 | 291 | 0.0 | 1.7 | 0.00 | 0.00 | 0.00 | 96 | 1011.1 |
| 20260903123504 | 48 | 81 | 0.0 | 1.7 | 0.00 | 0.00 | 0.00 | 96 | 1011.0 |
| 20260903123002 | 48 | 120 | 0.9 | 3.5 | 0.00 | 0.00 | 0.00 | 95 | 1011.1 |
| 20260903122456 | 48 | 120 | 0.0 | 0.9 | 0.00 | 0.00 | 0.00 | 95 | 1011.0 |
| 20260903121956 | 48 | 154 | 1.7 | 1.7 | 0.00 | 0.00 | 0.00 | 95 | 1010.9 |
| 20260903121450 | 48 | 191 | 0.9 | 2.6 | 0.00 | 0.00 | 0.00 | 95 | 1011.0 |
| 20260903120947 | 48 | 23 | 1.7 | 2.6 | 0.00 | 0.00 | 0.00 | 95 | 1010.9 |
| 20260903120445 | 48 | 49 | 2.6 | 2.6 | 0.00 | 0.00 | 0.00 | 96 | 1010.8 |
| 20260903115944 | 48 | 106 | 3.5 | 5.2 | 0.00 | 0.00 | 0.00 | 96 | 1011.0 |
| 20260903115443 | 48 | 30 | 1.7 | 2.6 | 0.00 | 0.00 | 0.00 | 96 | 1011.0 |
| 20260903114938 | 48 | 29 | 0.9 | 2.6 | 0.00 | 0.00 | 0.00 | 96 | 1010.9 |
| 20260903114434 | 48 | 74 | 1.7 | 2.6 | 0.00 | 0.00 | 0.00 | 96 | 1010.9 |
| 20260903113929 | 48 | 112 | 1.7 | 2.6 | 0.00 | 0.00 | 0.00 | 96 | 1011.4 |
| 20260903113425 | 48 | 15 | 0.0 | 1.7 | 0.00 | 0.00 | 0.00 | 96 | 1011.1 |
| 20260903112921 | 47 | 90 | 1.7 | 1.7 | 0.00 | 0.00 | 0.00 | 96 | 1010.9 |
| 20260903112416 | 48 | 286 | 0.0 | 1.7 | 0.00 | 0.00 | 0.00 | 96 | 1011.1 |
| 20260903111915 | 47 | 48 | 1.7 | 1.7 | 0.00 | 0.00 | 0.00 | 96 | 1011.1 |
| 20260903111415 | 47 | 90 | 1.7 | 1.7 | 0.00 | 0.00 | 0.00 | 96 | 1011.3 |
| 20260903110911 | 47 | 98 | 0.0 | 2.6 | 0.00 | 0.00 | 0.00 | 96 | 1011.1 |
| 20260903110407 | 47 | 99 | 0.0 | 1.7 | 0.00 | 0.00 | 0.00 | 96 | 1010.8 |
| 20260903105901 | 47 | 96 | 0.9 | 1.7 | 0.00 | 0.00 | 0.00 | 96 | 1010.8 |
| 20260903105357 | 47 | 81 | 0.0 | 1.7 | 0.00 | 0.00 | 0.00 | 96 | 1010.9 |
| 20260903104856 | 47 | 192 | 0.0 | 1.7 | 0.00 | 0.00 | 0.00 | 95 | 1010.7 |
| 20260903104350 | 47 | 255 | 0.0 | 0.9 | 0.00 | 0.00 | 0.00 | 96 | 1011.0 |
| 20260903103848 | 47 | 120 | 0.0 | 0.9 | 0.00 | 0.00 | 0.00 | 95 | 1010.9 |
| 20260903103344 | 47 | 105 | 0.0 | 1.7 | 0.00 | 0.00 | 0.00 | 96 | 1011.0 |
| 20260903102838 | 47 | 117 | 0.9 | 5.2 | 0.00 | 0.00 | 0.00 | 96 | 1010.9 |
| 20260903102333 | 47 | 94 | 1.7 | 4.3 | 0.00 | 0.00 | 0.00 | 96 | 1010.7 |
| 20260903101833 | 47 | 79 | 2.6 | 4.3 | 0.00 | 0.00 | 0.00 | 96 | 1010.9 |
| 20260903101328 | 47 | 99 | 3.5 | 4.3 | 0.00 | 0.00 | 0.00 | 96 | 1010.9 |
| 20260903100823 | 47 | 98 | 2.6 | 4.3 | 0.00 | 0.00 | 0.00 | 96 | 1011.1 |
| 20260903100317 | 47 | 105 | 2.6 | 3.5 | 0.00 | 0.00 | 0.00 | 96 | 1011.0 |
| 20260903095815 | 47 | 40 | 0.9 | 1.7 | 0.00 | 0.00 | 0.00 | 96 | 1010.9 |
| 20260903095309 | 47 | 99 | 0.0 | 1.7 | 0.00 | 0.00 | 0.00 | 96 | 1011.1 |
| 20260903094805 | 47 | 83 | 0.9 | 1.7 | 0.00 | 0.00 | 0.00 | 96 | 1011.1 |
| 20260903094259 | 47 | 45 | 1.7 | 1.7 | 0.00 | 0.00 | 0.00 | 96 | 1011.0 |
| 20260903093755 | 47 | 57 | 0.9 | 1.7 | 0.00 | 0.00 | 0.00 | 96 | 1010.9 |
| 20260903093250 | 47 | 94 | 1.7 | 1.7 | 0.00 | 0.00 | 0.00 | 95 | 1011.0 |
| 20260903092750 | 47 | 95 | 1.7 | 1.7 | 0.00 | 0.00 | 0.00 | 95 | 1011.0 |
| 20260903092245 | 47 | 56 | 1.7 | 1.7 | 0.00 | 0.00 | 0.00 | 95 | 1011.1 |
| 20260903091743 | 47 | 45 | 1.7 | 2.6 | 0.00 | 0.00 | 0.00 | 96 | 1010.8 |
| 20260903091232 | 47 | 85 | 1.7 | 1.7 | 0.00 | 0.00 | 0.00 | 95 | 1010.9 |
| 20260903090728 | 47 | 98 | 0.0 | 0.9 | 0.00 | 0.00 | 0.00 | 95 | 1010.9 |
| 20260903090227 | 47 | 90 | 0.9 | 1.7 | 0.00 | 0.00 | 0.00 | 95 | 1011.3 |
| 20260903085726 | 47 | 203 | 0.0 | 1.7 | 0.00 | 0.00 | 0.00 | 95 | 1010.8 |
| 20260903085221 | 47 | 261 | 1.7 | 2.6 | 0.00 | 0.00 | 0.00 | 95 | 1011.0 |
| 20260903084718 | 47 | 258 | 1.7 | 2.6 | 0.00 | 0.00 | 0.00 | 95 | 1011.1 |
| 20260903084214 | 47 | 90 | 0.0 | 0.0 | 0.00 | 0.00 | 0.00 | 95 | 1010.9 |
| 20260903083710 | 47 | 111 | 0.9 | 2.6 | 0.00 | 0.00 | 0.00 | 95 | 1010.6 |
| 20260903083209 | 47 | 103 | 1.7 | 2.6 | 0.00 | 0.00 | 0.00 | 95 | 1010.8 |
| 20260903082703 | 47 | 103 | 0.9 | 2.6 | 0.00 | 0.00 | 0.00 | 95 | 1010.7 |
| 20260903082159 | 47 | 113 | 1.7 | 3.5 | 0.00 | 0.00 | 0.00 | 95 | 1010.7 |
| 20260903081653 | 47 | 86 | 2.6 | 5.2 | 0.00 | 0.00 | 0.00 | 95 | 1010.6 |
| 20260903081150 | 47 | 123 | 2.6 | 2.6 | 0.00 | 0.00 | 0.00 | 95 | 1010.6 |
| 20260903080645 | 47 | 108 | 2.6 | 4.3 | 0.00 | 0.00 | 0.00 | 95 | 1010.6 |
| 20260903080143 | 47 | 103 | 0.0 | 1.7 | 0.00 | 0.00 | 0.00 | 95 | 1010.8 |
| 20260903075642 | 47 | 90 | 2.6 | 2.6 | 0.00 | 0.00 | 0.00 | 95 | 1010.4 |
| 20260903075137 | 47 | 94 | 1.7 | 2.6 | 0.00 | 0.00 | 0.00 | 94 | 1010.6 |
| 20260903074636 | 47 | 69 | 2.6 | 2.6 | 0.00 | 0.00 | 0.00 | 94 | 1010.0 |
| 20260903074132 | 48 | 65 | 1.7 | 1.7 | 0.00 | 0.00 | 0.00 | 94 | 1010.3 |
| 20260903073627 | 48 | 73 | 1.7 | 1.7 | 0.00 | 0.00 | 0.00 | 94 | 1010.4 |
| 20260903073122 | 48 | 99 | 2.6 | 3.5 | 0.00 | 0.00 | 0.00 | 93 | 1010.4 |
| 20260903072618 | 48 | 114 | 0.0 | 2.6 | 0.00 | 0.00 | 0.00 | 93 | 1010.1 |
| 20260903072114 | 48 | 139 | 1.7 | 2.6 | 0.00 | 0.00 | 0.00 | 93 | 1010.5 |
| 20260903071611 | 48 | 99 | 0.0 | 6.1 | 0.00 | 0.00 | 0.00 | 93 | 1010.3 |
| 20260903071111 | 48 | 72 | 5.2 | 6.1 | 0.00 | 0.00 | 0.00 | 93 | 1010.4 |
| 20260903070605 | 48 | 48 | 1.7 | 3.5 | 0.00 | 0.00 | 0.00 | 93 | 1009.9 |
| 20260903065600 | 48 | 99 | 2.6 | 3.5 | 0.00 | 0.00 | 0.00 | 93 | 1010.4 |
| 20260903065055 | 48 | 123 | 2.6 | 4.3 | 0.00 | 0.00 | 0.00 | 93 | 1010.4 |
| 20260903064554 | 48 | 152 | 1.7 | 3.5 | 0.00 | 0.00 | 0.00 | 93 | 1010.0 |
| 20260903064050 | 48 | 104 | 4.3 | 7.8 | 0.00 | 0.00 | 0.00 | 92 | 1009.9 |
| 20260903063545 | 49 | 121 | 3.5 | 7.8 | 0.00 | 0.00 | 0.00 | 93 | 1010.1 |
| 20260903063041 | 48 | 123 | 1.7 | 7.0 | 0.00 | 0.00 | 0.00 | 93 | 1010.5 |
| 20260903062536 | 48 | 114 | 0.0 | 1.7 | 0.00 | 0.00 | 0.00 | 94 | 1010.0 |
| 20260903062031 | 48 | 92 | 5.2 | 5.2 | 0.00 | 0.00 | 0.00 | 94 | 1010.0 |
| 20260903061527 | 48 | 98 | 2.6 | 3.5 | 0.00 | 0.00 | 0.00 | 93 | 1010.0 |
| 20260903061026 | 48 | 99 | 0.0 | 1.7 | 0.00 | 0.00 | 0.00 | 93 | 1010.3 |
| 20260903060525 | 48 | 111 | 0.0 | 4.3 | 0.00 | 0.00 | 0.00 | 93 | 1010.3 |
| 20260903060021 | 48 | 131 | 0.9 | 1.7 | 0.00 | 0.29 | 0.29 | 93 | 1010.3 |
| 20260903055518 | 48 | 81 | 0.0 | 0.9 | 0.00 | 0.29 | 0.29 | 93 | 1010.3 |
| 20260903055017 | 48 | 146 | 1.7 | 3.5 | 0.00 | 0.29 | 0.29 | 92 | 1010.4 |
| 20260903054513 | 49 | 129 | 2.6 | 5.2 | 0.00 | 0.29 | 0.29 | 92 | 1010.4 |
| 20260903054008 | 49 | 108 | 3.5 | 3.5 | 0.00 | 0.29 | 0.29 | 92 | 1010.0 |
| 20260903053503 | 49 | 105 | 2.6 | 3.5 | 0.00 | 0.29 | 0.29 | 92 | 1010.3 |
| 20260903052959 | 49 | 99 | 3.5 | 3.5 | 0.00 | 0.29 | 0.29 | 91 | 1010.5 |
| 20260903052455 | 50 | 90 | 1.7 | 6.1 | 0.00 | 0.29 | 0.29 | 91 | 1010.3 |
| 20260903051950 | 50 | 90 | 1.7 | 2.6 | 0.00 | 0.29 | 0.29 | 91 | 1010.6 |
| 20260903051445 | 50 | 114 | 0.9 | 2.6 | 0.00 | 0.29 | 0.29 | 91 | 1010.5 |
| 20260903050941 | 50 | 90 | 2.6 | 4.3 | 0.00 | 0.29 | 0.29 | 90 | 1010.3 |
| 20260903050440 | 50 | 90 | 0.0 | 2.6 | 0.00 | 0.29 | 0.29 | 90 | 1010.5 |
| 20260903045934 | 50 | 105 | 2.6 | 4.3 | 0.00 | 0.29 | 0.29 | 90 | 1010.6 |
| 20260903045430 | 50 | 105 | 5.2 | 5.2 | 0.00 | 0.29 | 0.29 | 91 | 1010.7 |
| 20260903044927 | 50 | 81 | 0.0 | 6.1 | 0.00 | 0.29 | 0.29 | 91 | 1010.6 |
| 20260903044427 | 50 | 129 | 5.2 | 7.8 | 0.00 | 0.29 | 0.29 | 90 | 1010.7 |
| 20260903043923 | 50 | 112 | 6.1 | 8.7 | 0.00 | 0.29 | 0.29 | 90 | 1010.6 |
| 20260903043419 | 50 | 106 | 4.3 | 10.4 | 0.00 | 0.29 | 0.29 | 90 | 1010.8 |
| 20260903042917 | 51 | 100 | 2.6 | 7.0 | 0.00 | 0.29 | 0.29 | 89 | 1010.5 |
| 20260903042413 | 51 | 103 | 5.2 | 8.7 | 0.00 | 0.29 | 0.29 | 89 | 1010.8 |
| 20260903041908 | 51 | 90 | 8.7 | 11.3 | 0.00 | 0.29 | 0.29 | 89 | 1010.6 |
| 20260903041404 | 51 | 112 | 2.6 | 7.8 | 0.00 | 0.29 | 0.29 | 89 | 1010.6 |
| 20260903040900 | 51 | 118 | 5.2 | 7.0 | 0.00 | 0.29 | 0.29 | 90 | 1010.7 |
| 20260903040359 | 51 | 121 | 3.5 | 6.1 | 0.00 | 0.29 | 0.29 | 89 | 1010.9 |
| 20260903035854 | 51 | 102 | 4.3 | 7.0 | 0.00 | 0.29 | 0.29 | 90 | 1010.5 |
| 20260903035350 | 51 | 102 | 4.3 | 7.8 | 0.00 | 0.29 | 0.29 | 90 | 1010.7 |
| 20260903034840 | 51 | 115 | 4.3 | 9.6 | 0.00 | 0.29 | 0.29 | 90 | 1010.9 |
| 20260903034335 | 51 | 109 | 3.5 | 6.1 | 0.00 | 0.29 | 0.29 | 90 | 1010.6 |
| 20260903033830 | 51 | 96 | 5.2 | 7.8 | 0.00 | 0.29 | 0.29 | 89 | 1010.7 |
| 20260903033325 | 52 | 82 | 2.6 | 6.1 | 0.00 | 0.29 | 0.29 | 88 | 1010.8 |
| 20260903032824 | 52 | 96 | 2.6 | 4.3 | 0.00 | 0.29 | 0.29 | 88 | 1010.8 |
| 20260903032320 | 52 | 94 | 1.7 | 4.3 | 0.00 | 0.29 | 0.29 | 88 | 1010.4 |
| 20260903031816 | 52 | 99 | 4.3 | 4.3 | 0.00 | 0.29 | 0.29 | 88 | 1010.6 |
| 20260903031315 | 52 | 87 | 3.5 | 4.3 | 0.00 | 0.29 | 0.29 | 88 | 1010.7 |
| 20260903030811 | 52 | 124 | 3.5 | 5.2 | 0.00 | 0.29 | 0.29 | 88 | 1010.6 |
| 20260903030307 | 53 | 66 | 1.7 | 5.2 | 0.00 | 0.29 | 0.29 | 88 | 1010.5 |
| 20260903025802 | 53 | 74 | 4.3 | 5.2 | 0.00 | 0.29 | 0.29 | 87 | 1010.7 |
| 20260903025258 | 53 | 98 | 1.7 | 6.1 | 0.00 | 0.29 | 0.29 | 87 | 1010.6 |
| 20260903024752 | 53 | 34 | 2.6 | 6.1 | 0.00 | 0.29 | 0.29 | 87 | 1010.6 |
| 20260903024251 | 53 | 93 | 2.6 | 6.1 | 0.00 | 0.29 | 0.29 | 87 | 1010.5 |
| 20260903023747 | 54 | 106 | 3.5 | 6.1 | 0.00 | 0.29 | 0.29 | 87 | 1010.5 |
| 20260903023243 | 54 | 107 | 4.3 | 6.1 | 0.00 | 0.29 | 0.29 | 86 | 1010.6 |
| 20260903022743 | 55 | 107 | 3.5 | 7.8 | 0.00 | 0.29 | 0.29 | 85 | 1010.5 |
| 20260903022242 | 55 | 113 | 6.1 | 7.8 | 0.00 | 0.29 | 0.29 | 85 | 1010.7 |
| 20260903021741 | 55 | 106 | 3.5 | 4.3 | 0.00 | 0.29 | 0.29 | 83 | 1010.4 |
| 20260903021237 | 55 | 105 | 3.5 | 6.1 | 0.00 | 0.29 | 0.29 | 82 | 1010.3 |
| 20260903020737 | 56 | 109 | 2.6 | 4.3 | 0.00 | 0.29 | 0.29 | 81 | 1010.7 |
| 20260903020231 | 56 | 98 | 3.5 | 4.3 | 0.00 | 0.29 | 0.29 | 80 | 1010.3 |
| 20260903015726 | 57 | 83 | 6.1 | 7.0 | 0.00 | 0.29 | 0.29 | 80 | 1010.5 |
| 20260903015222 | 57 | 107 | 2.6 | 5.2 | 0.00 | 0.29 | 0.29 | 78 | 1010.5 |
| 20260903014717 | 58 | 105 | 2.6 | 5.2 | 0.00 | 0.29 | 0.29 | 76 | 1010.4 |
| 20260903014217 | 59 | 142 | 1.7 | 6.1 | 0.00 | 0.29 | 0.29 | 76 | 1010.5 |
| 20260903013712 | 59 | 90 | 0.0 | 3.5 | 0.00 | 0.29 | 0.29 | 75 | 1010.6 |
| 20260903013211 | 60 | 124 | 0.0 | 1.7 | 0.00 | 0.29 | 0.29 | 71 | 1010.7 |
| 20260903012709 | 61 | 151 | 0.0 | 1.7 | 0.00 | 0.29 | 0.29 | 71 | 1010.5 |
| 20260903012204 | 60 | 180 | 0.0 | 0.0 | 0.00 | 0.29 | 0.29 | 72 | 1010.7 |
| 20260903011659 | 60 | 15 | 0.0 | 0.0 | 0.00 | 0.29 | 0.29 | 70 | 1010.9 |
| 20260903011158 | 59 | 15 | 0.0 | 0.0 | 0.00 | 0.29 | 0.29 | 72 | 1010.5 |
| 20260903010653 | 59 | 15 | 0.0 | 0.9 | 0.00 | 0.29 | 0.29 | 72 | 1010.9 |
| 20260903010153 | 60 | 261 | 0.0 | 0.0 | 0.00 | 0.29 | 0.29 | 69 | 1010.7 |
| 20260903005647 | 61 | 261 | 0.0 | 0.0 | 0.00 | 0.29 | 0.29 | 67 | 1010.7 |
| 20260903005142 | 61 | 270 | 0.0 | 1.7 | 0.00 | 0.29 | 0.29 | 66 | 1010.8 |
| 20260903004637 | 61 | 325 | 0.0 | 2.6 | 0.00 | 0.29 | 0.29 | 67 | 1011.0 |
| 20260903004132 | 60 | 172 | 0.0 | 0.0 | 0.00 | 0.29 | 0.29 | 70 | 1011.0 |
| 20260903003628 | 61 | 66 | 0.0 | 0.9 | 0.00 | 0.29 | 0.29 | 68 | 1011.0 |
| 20260903003123 | 62 | 297 | 0.0 | 2.6 | 0.00 | 0.29 | 0.29 | 67 | 1011.1 |
| 20260903002618 | 62 | 301 | 1.7 | 1.7 | 0.00 | 0.29 | 0.29 | 66 | 1011.3 |
| 20260903002112 | 61 | 283 | 1.7 | 2.6 | 0.00 | 0.29 | 0.29 | 68 | 1011.5 |
| 20260903001607 | 62 | 0 | 0.0 | 1.7 | 0.00 | 0.29 | 0.29 | 68 | 1011.3 |
| 20260903001107 | 62 | 305 | 1.7 | 3.5 | 0.00 | 0.29 | 0.29 | 66 | 1011.3 |
| 20260903000602 | 61 | 74 | 0.0 | 1.7 | 0.00 | 0.29 | 0.29 | 69 | 1011.6 |
| 20260903000055 | 62 | 330 | 1.7 | 2.6 | 0.00 | 0.29 | 0.29 | 70 | 1011.5 |
| 20260902235555 | 61 | 326 | 1.7 | 3.5 | 0.00 | 0.29 | 0.29 | 71 | 1011.6 |
| 20260902235050 | 60 | 270 | 0.9 | 3.5 | 0.00 | 0.29 | 0.29 | 73 | 1011.7 |
| 20260902234544 | 59 | 257 | 3.5 | 3.5 | 0.00 | 0.29 | 0.29 | 76 | 1011.8 |
| 20260902234043 | 59 | 276 | 1.7 | 3.5 | 0.00 | 0.29 | 0.29 | 75 | 1011.7 |
| 20260902233538 | 59 | 26 | 1.7 | 2.6 | 0.00 | 0.29 | 0.29 | 75 | 1011.7 |
| 20260902233032 | 59 | 284 | 2.6 | 2.6 | 0.00 | 0.29 | 0.29 | 74 | 1011.5 |
| 20260902232532 | 58 | 0 | 0.0 | 1.7 | 0.00 | 0.29 | 0.29 | 74 | 1011.5 |
| 20260902232026 | 59 | 98 | 0.9 | 2.6 | 0.00 | 0.29 | 0.29 | 75 | 1011.9 |
| 20260902231521 | 60 | 246 | 0.0 | 0.9 | 0.00 | 0.29 | 0.29 | 75 | 1011.9 |
| 20260902231021 | 58 | 26 | 0.0 | 0.0 | 0.00 | 0.29 | 0.29 | 81 | 1011.9 |
| 20260902230515 | 57 | 299 | 1.7 | 2.6 | 0.00 | 0.29 | 0.29 | 84 | 1011.9 |
| 20260902230014 | 57 | 352 | 0.0 | 1.7 | 0.00 | 0.29 | 0.29 | 85 | 1012.0 |
| 20260902225510 | 57 | 99 | 0.0 | 1.7 | 0.00 | 0.29 | 0.29 | 85 | 1011.8 |
| 20260902225004 | 56 | 0 | 0.9 | 1.7 | 0.00 | 0.29 | 0.29 | 86 | 1011.9 |
| 20260902224503 | 55 | 278 | 0.0 | 1.7 | 0.00 | 0.29 | 0.29 | 86 | 1012.3 |
| 20260902223959 | 55 | 9 | 1.7 | 2.6 | 0.00 | 0.29 | 0.29 | 87 | 1012.3 |
| 20260902223455 | 55 | 24 | 1.7 | 2.6 | 0.00 | 0.29 | 0.29 | 88 | 1012.3 |
| 20260902222954 | 55 | 90 | 1.7 | 1.7 | 0.00 | 0.29 | 0.29 | 88 | 1012.4 |
| 20260902222453 | 54 | 14 | 0.0 | 1.7 | 0.00 | 0.29 | 0.29 | 89 | 1012.3 |
| 20260902221952 | 55 | 65 | 1.7 | 2.6 | 0.00 | 0.29 | 0.29 | 90 | 1012.6 |
| 20260902221452 | 54 | 54 | 0.0 | 0.9 | 0.00 | 0.29 | 0.29 | 91 | 1012.7 |
| 20260902220947 | 53 | 15 | 0.0 | 0.9 | 0.00 | 0.29 | 0.29 | 92 | 1012.6 |
| 20260902220441 | 53 | 15 | 0.0 | 0.9 | 0.00 | 0.29 | 0.29 | 93 | 1012.8 |
| 20260902215936 | 53 | 15 | 0.9 | 1.7 | 0.00 | 0.29 | 0.29 | 93 | 1012.4 |
| 20260902215432 | 53 | 71 | 0.9 | 3.5 | 0.00 | 0.29 | 0.29 | 94 | 1012.6 |
| 20260902214928 | 53 | 233 | 1.7 | 3.5 | 0.00 | 0.29 | 0.29 | 94 | 1012.8 |
| 20260902214426 | 53 | 307 | 1.7 | 2.6 | 0.00 | 0.29 | 0.29 | 94 | 1012.7 |
| 20260902213921 | 52 | 203 | 0.9 | 2.6 | 0.00 | 0.29 | 0.29 | 94 | 1012.8 |
| 20260902213417 | 52 | 262 | 2.6 | 5.2 | 0.00 | 0.29 | 0.29 | 94 | 1012.5 |
| 20260902212916 | 52 | 192 | 2.6 | 8.7 | 0.00 | 0.29 | 0.29 | 93 | 1012.6 |
| 20260902212412 | 51 | 234 | 3.5 | 4.3 | 0.00 | 0.29 | 0.29 | 94 | 1011.7 |
| 20260902211908 | 51 | 173 | 0.0 | 2.6 | 0.00 | 0.29 | 0.29 | 94 | 1011.3 |
| 20260902211403 | 51 | 180 | 1.7 | 2.6 | 0.00 | 0.29 | 0.29 | 93 | 1010.5 |
| 20260902210853 | 52 | 8 | 0.0 | 0.9 | 0.00 | 0.29 | 0.29 | 93 | 1011.1 |
| 20260902210352 | 51 | 209 | 2.6 | 3.5 | 0.00 | 0.29 | 0.29 | 93 | 1011.4 |
| 20260902205850 | 51 | 53 | 1.7 | 3.5 | 0.00 | 0.29 | 0.29 | 93 | 1011.5 |
| 20260902205340 | 52 | 117 | 1.7 | 4.3 | 0.00 | 0.29 | 0.29 | 93 | 1011.9 |
| 20260902204835 | 52 | 41 | 0.0 | 2.6 | 0.00 | 0.29 | 0.29 | 93 | 1012.3 |
| 20260902204330 | 51 | 233 | 0.0 | 2.6 | 0.02 | 0.29 | 0.29 | 93 | 1012.4 |
| 20260902203826 | 51 | 188 | 0.0 | 1.7 | 0.02 | 0.28 | 0.28 | 93 | 1012.7 |
| 20260902203321 | 51 | 24 | 1.7 | 4.3 | 0.07 | 0.28 | 0.28 | 93 | 1013.2 |
| 20260902202820 | 51 | 66 | 0.9 | 2.6 | 0.09 | 0.28 | 0.28 | 93 | 1013.9 |
| 20260902202317 | 51 | 0 | 0.9 | 1.7 | 0.19 | 0.27 | 0.27 | 92 | 1014.5 |
| 20260902201813 | 51 | 47 | 2.6 | 3.5 | 0.21 | 0.26 | 0.26 | 92 | 1014.4 |
| 20260902201312 | 51 | 29 | 0.0 | 3.5 | 0.14 | 0.24 | 0.24 | 92 | 1014.8 |
| 20260902200808 | 52 | 61 | 2.6 | 3.5 | 0.17 | 0.22 | 0.22 | 91 | 1014.7 |
| 20260902200303 | 52 | 103 | 0.9 | 1.7 | 0.26 | 0.22 | 0.22 | 89 | 1014.8 |
| 20260902195758 | 52 | 270 | 1.7 | 2.6 | 0.21 | 0.19 | 0.19 | 87 | 1014.7 |
| 20260902195257 | 52 | 245 | 1.7 | 4.3 | 0.17 | 0.17 | 0.17 | 85 | 1014.5 |
| 20260902194752 | 52 | 201 | 0.0 | 3.5 | 0.33 | 0.15 | 0.15 | 89 | 1014.4 |
| 20260902194247 | 52 | 174 | 3.5 | 7.0 | 0.57 | 0.13 | 0.13 | 91 | 1014.0 |
| 20260902193743 | 53 | 196 | 1.7 | 7.0 | 0.52 | 0.10 | 0.10 | 84 | 1013.7 |
| 20260902193238 | 55 | 287 | 3.5 | 7.0 | 0.19 | 0.04 | 0.04 | 82 | 1013.7 |
| 20260902192737 | 56 | 298 | 2.6 | 7.0 | 0.05 | 0.01 | 0.01 | 75 | 1012.9 |
| 20260902192236 | 57 | 261 | 5.2 | 11.3 | 0.05 | 0.01 | 0.01 | 75 | 1012.5 |
| 20260902191731 | 57 | 196 | 6.1 | 7.0 | 0.00 | 0.00 | 0.00 | 74 | 1012.0 |
| 20260902191226 | 58 | 203 | 9.6 | 13.9 | 0.00 | 0.00 | 0.00 | 70 | 1011.6 |
| 20260902190721 | 59 | 235 | 7.0 | 22.6 | 0.00 | 0.00 | 0.00 | 66 | 1011.6 |
| 20260902190221 | 60 | 236 | 17.4 | 20.9 | 0.00 | 0.00 | 0.00 | 64 | 1011.4 |
| 20260902185717 | 61 | 241 | 4.3 | 21.7 | 0.00 | 0.00 | 0.00 | 63 | 1011.0 |
| 20260902185213 | 61 | 199 | 8.7 | 22.6 | 0.00 | 0.00 | 0.00 | 62 | 1011.1 |
| 20260902184712 | 62 | 230 | 8.7 | 21.7 | 0.00 | 0.00 | 0.00 | 61 | 1010.9 |
| 20260902184208 | 64 | 289 | 7.8 | 7.8 | 0.00 | 0.00 | 0.00 | 65 | 1010.9 |
| 20260902183704 | 64 | 148 | 1.7 | 12.2 | 0.00 | 0.00 | 0.00 | 66 | 1010.7 |
| 20260902183200 | 64 | 272 | 6.1 | 7.0 | 0.00 | 0.00 | 0.00 | 71 | 1010.6 |
| 20260902182656 | 64 | 299 | 1.7 | 6.1 | 0.00 | 0.00 | 0.00 | 70 | 1010.6 |
| 20260902182152 | 64 | 264 | 2.6 | 5.2 | 0.00 | 0.00 | 0.00 | 70 | 1010.4 |
| 20260902181648 | 64 | 264 | 4.3 | 6.1 | 0.00 | 0.00 | 0.00 | 70 | 1010.5 |
| 20260902181148 | 63 | 286 | 2.6 | 6.1 | 0.00 | 0.00 | 0.00 | 70 | 1010.3 |
| 20260902180642 | 64 | 283 | 2.6 | 5.2 | 0.00 | 0.00 | 0.00 | 69 | 1010.3 |
| 20260902180138 | 64 | 258 | 1.7 | 6.1 | 0.00 | 0.00 | 0.00 | 69 | 1010.3 |
| 20260902175637 | 64 | 247 | 5.2 | 5.2 | 0.00 | 0.00 | 0.00 | 68 | 1010.1 |
| 20260902175133 | 64 | 231 | 4.3 | 6.1 | 0.00 | 0.00 | 0.00 | 68 | 1010.0 |
| 20260902174630 | 65 | 267 | 2.6 | 5.2 | 0.00 | 0.00 | 0.00 | 67 | 1010.1 |
| 20260902174125 | 65 | 277 | 2.6 | 2.6 | 0.00 | 0.00 | 0.00 | 69 | 1009.9 |
| 20260902173620 | 65 | 309 | 1.7 | 4.3 | 0.00 | 0.00 | 0.00 | 68 | 1009.7 |
| 20260902173115 | 65 | 280 | 2.6 | 4.3 | 0.00 | 0.00 | 0.00 | 67 | 1009.9 |
| 20260902172609 | 66 | 302 | 2.6 | 4.3 | 0.00 | 0.00 | 0.00 | 66 | 1009.7 |
| 20260902172103 | 66 | 111 | 2.6 | 3.5 | 0.00 | 0.00 | 0.00 | 67 | 1009.8 |
| 20260902171559 | 65 | 206 | 1.7 | 2.6 | 0.00 | 0.00 | 0.00 | 68 | 1009.7 |
| 20260902171055 | 64 | 277 | 2.6 | 3.5 | 0.00 | 0.00 | 0.00 | 71 | 1009.6 |
| 20260902170550 | 65 | 254 | 1.7 | 4.3 | 0.00 | 0.00 | 0.00 | 69 | 1009.5 |
| 20260902170046 | 64 | 286 | 0.9 | 4.3 | 0.00 | 0.00 | 0.00 | 72 | 1009.5 |
| 20260902165545 | 63 | 20 | 2.6 | 4.3 | 0.00 | 0.00 | 0.00 | 72 | 1009.6 |
| 20260902165039 | 63 | 26 | 2.6 | 3.5 | 0.00 | 0.00 | 0.00 | 74 | 1009.6 |
| 20260902164535 | 63 | 331 | 1.7 | 2.6 | 0.00 | 0.00 | 0.00 | 73 | 1009.5 |
| 20260902164033 | 62 | 3 | 1.7 | 6.1 | 0.00 | 0.00 | 0.00 | 75 | 1009.6 |
| 20260902163530 | 62 | 235 | 1.7 | 2.6 | 0.00 | 0.00 | 0.00 | 76 | 1009.3 |
| 20260902163028 | 61 | 294 | 0.0 | 3.5 | 0.00 | 0.00 | 0.00 | 77 | 1009.1 |
| 20260902162527 | 60 | 288 | 3.5 | 6.1 | 0.00 | 0.00 | 0.00 | 77 | 1009.3 |
| 20260902162023 | 62 | 236 | 1.7 | 2.6 | 0.00 | 0.00 | 0.00 | 76 | 1009.1 |
| 20260902161518 | 61 | 39 | 1.7 | 3.5 | 0.00 | 0.00 | 0.00 | 76 | 1009.0 |
| 20260902161013 | 59 | 241 | 0.0 | 1.7 | 0.00 | 0.00 | 0.00 | 79 | 1009.3 |
| 20260902160509 | 59 | 206 | 1.7 | 1.7 | 0.00 | 0.00 | 0.00 | 79 | 1009.0 |
| 20260902160010 | 59 | 4 | 0.0 | 3.5 | 0.00 | 0.00 | 0.00 | 80 | 1008.8 |
| 20260902155502 | 59 | 0 | 1.7 | 2.6 | 0.00 | 0.00 | 0.00 | 79 | 1009.1 |
| 20260902155001 | 59 | 306 | 0.0 | 2.6 | 0.00 | 0.00 | 0.00 | 80 | 1009.3 |
| 20260902154456 | 59 | 203 | 0.0 | 1.7 | 0.00 | 0.00 | 0.00 | 80 | 1008.9 |
| 20260902153952 | 58 | 0 | 1.7 | 2.6 | 0.00 | 0.00 | 0.00 | 82 | 1009.0 |
| 20260902153450 | 58 | 315 | 1.7 | 1.7 | 0.00 | 0.00 | 0.00 | 83 | 1009.1 |
| 20260902152945 | 57 | 257 | 1.7 | 2.6 | 0.00 | 0.00 | 0.00 | 84 | 1009.1 |
| 20260902152442 | 57 | 270 | 1.7 | 3.5 | 0.00 | 0.00 | 0.00 | 85 | 1009.0 |
| 20260902151937 | 57 | 265 | 1.7 | 3.5 | 0.00 | 0.00 | 0.00 | 85 | 1008.9 |
| 20260902151433 | 57 | 180 | 0.0 | 4.3 | 0.00 | 0.00 | 0.00 | 86 | 1008.9 |
| 20260902150926 | 56 | 260 | 3.5 | 3.5 | 0.00 | 0.00 | 0.00 | 87 | 1009.1 |
| 20260902150423 | 56 | 270 | 2.6 | 3.5 | 0.00 | 0.00 | 0.00 | 87 | 1009.0 |
| 20260902145922 | 56 | 195 | 0.9 | 3.5 | 0.00 | 0.00 | 0.00 | 87 | 1008.9 |
| 20260902145418 | 56 | 212 | 0.9 | 2.6 | 0.00 | 0.00 | 0.00 | 88 | 1008.8 |
| 20260902144913 | 55 | 270 | 0.9 | 2.6 | 0.00 | 0.00 | 0.00 | 88 | 1009.0 |
| 20260902144409 | 56 | 340 | 0.9 | 1.7 | 0.00 | 0.00 | 0.00 | 87 | 1008.8 |
| 20260902143903 | 56 | 45 | 0.0 | 1.7 | 0.00 | 0.00 | 0.00 | 88 | 1008.9 |
| 20260902143358 | 55 | 35 | 0.0 | 1.7 | 0.00 | 0.00 | 0.00 | 88 | 1008.9 |
| 20260902142853 | 55 | 286 | 0.0 | 0.9 | 0.00 | 0.00 | 0.00 | 89 | 1009.0 |
| 20260902142349 | 55 | 315 | 0.0 | 2.6 | 0.00 | 0.00 | 0.00 | 89 | 1009.0 |
| 20260902141844 | 55 | 168 | 0.0 | 1.7 | 0.00 | 0.00 | 0.00 | 90 | 1009.1 |
| 20260902141340 | 55 | 145 | 0.9 | 2.6 | 0.00 | 0.00 | 0.00 | 90 | 1009.0 |
| 20260902140839 | 54 | 187 | 0.9 | 0.9 | 0.00 | 0.00 | 0.00 | 90 | 1009.4 |
| 20260902140334 | 54 | 270 | 0.0 | 0.0 | 0.00 | 0.00 | 0.00 | 90 | 1009.5 |
| 20260902135833 | 54 | 99 | 0.0 | 2.6 | 0.00 | 0.00 | 0.00 | 90 | 1009.5 |
| 20260902135330 | 54 | 156 | 0.0 | 1.7 | 0.00 | 0.00 | 0.00 | 90 | 1009.3 |
| 20260902134828 | 54 | 172 | 0.0 | 0.0 | 0.00 | 0.00 | 0.00 | 90 | 1009.1 |
| 20260902134324 | 53 | 257 | 0.9 | 0.9 | 0.00 | 0.00 | 0.00 | 91 | 1009.4 |
| 20260902133820 | 53 | 98 | 0.9 | 0.9 | 0.00 | 0.00 | 0.00 | 91 | 1009.5 |
| 20260902133319 | 53 | 35 | 0.0 | 2.6 | 0.00 | 0.00 | 0.00 | 91 | 1009.6 |
| 20260902132815 | 53 | 209 | 1.7 | 1.7 | 0.00 | 0.00 | 0.00 | 91 | 1009.5 |
| 20260902132310 | 53 | 90 | 1.7 | 2.6 | 0.00 | 0.00 | 0.00 | 90 | 1009.5 |
| 20260902131805 | 53 | 180 | 0.0 | 0.0 | 0.00 | 0.00 | 0.00 | 90 | 1009.6 |
| 20260902131301 | 53 | 74 | 0.0 | 1.7 | 0.00 | 0.00 | 0.00 | 90 | 1009.4 |